Weather History for KPGA - July, 2014

Change the Weather History Date:

Saturday, July 5, 2014

  Actual Average Record
Temperature  
Mean Temperature 85 °F -  
Max Temperature 97 °F 96 °F 109 °F (1985)
Min Temperature 73 °F 67 °F 59 °F (1979)
Cooling Degree Days 20    
Growing Degree Days 35 (Base 50)    
Moisture  
Dew Point 47 °F    
Average Humidity 27    
Maximum Humidity 41    
Minimum Humidity 9    
Precipitation  
Precipitation 0.00 in - - ()
Sea Level Pressure  
Sea Level Pressure 29.96 in    
Wind  
Wind Speed 6 mph (NW)    
Max Wind Speed 22 mph    
Max Gust Speed 30 mph    
Visibility 10 miles    
Events      
Averages and records for this station are not official NWS values.
T = Trace of Precipitation, MM = Missing Value Source: NWS Daily Summary

Daily Weather History Graph

Daily Weather History Graph

Search for Another Location

Airport or City:

Trip Planner

Search our weather history database for the weather conditions in past years. The results will help you decide how hot, cold, wet, or windy it might be!

Date:

Astronomy

Jul. 05, 2014 Rise Set
Actual Time 5:12 AM MST 7:48 PM MST
Civil Twilight 4:41 AM MST 8:19 PM MST
Nautical Twilight 4:03 AM MST 8:56 PM MST
Astronomical Twilight 3:21 AM MST 9:39 PM MST
Moon 12:57 PM MST No Moon Set
Length of Visible Light 15h 37m
Length of Day
14h 36m
First Quarter, 53% of the Moon is Illuminated
Jul 5
First Quarter
Jul 12
Full
Jul 18
Last Quarter
Jul 26
New
Aug 3
First Quarter

Hourly Weather History & Observations

Time (MST) Temp. Dew Point Humidity Pressure Visibility Wind Dir Wind Speed Gust Speed Precip Events Conditions
12:53 AM 78.1 °F 48.0 °F 35% 29.97 in 10.0 mi SSW 9.2 mph - N/A   Overcast
1:53 AM 77.0 °F 48.9 °F 37% 29.98 in 10.0 mi NW 5.8 mph - N/A   Scattered Clouds
2:53 AM 78.1 °F 48.9 °F 36% 30.00 in 10.0 mi North 4.6 mph - N/A   Clear
3:53 AM 77.0 °F 48.9 °F 37% 30.01 in 10.0 mi SSW 3.5 mph - N/A   Clear
4:53 AM 75.9 °F 48.9 °F 38% 30.03 in 10.0 mi Calm Calm - N/A   Clear
5:53 AM 73.9 °F 48.9 °F 41% 30.04 in 10.0 mi Calm Calm - N/A   Clear
6:53 AM 75.9 °F 50.0 °F 40% 30.06 in 10.0 mi Calm Calm - N/A   Clear
7:53 AM 78.1 °F 50.0 °F 37% 30.06 in 10.0 mi SW 3.5 mph - N/A   Scattered Clouds
8:53 AM 82.0 °F 50.0 °F 33% 30.05 in 10.0 mi NNW 5.8 mph - N/A   Clear
9:53 AM 84.0 °F 48.9 °F 29% 30.04 in 10.0 mi Variable 3.5 mph - N/A   Clear
10:53 AM 87.1 °F 48.9 °F 27% 30.02 in 10.0 mi Variable 6.9 mph - N/A   Clear
11:53 AM 89.1 °F 48.0 °F 24% 30.00 in 10.0 mi WSW 5.8 mph - N/A   Clear
12:53 PM 90.0 °F 45.0 °F 21% 29.97 in 10.0 mi Variable 5.8 mph - N/A   Clear
1:53 PM 93.0 °F 44.1 °F 18% 29.94 in 10.0 mi North 5.8 mph - N/A   Clear
2:53 PM 95.0 °F 42.1 °F 16% 29.90 in 10.0 mi North 5.8 mph - N/A   Clear
3:53 PM 96.1 °F 43.0 °F 16% 29.89 in 10.0 mi Variable 3.5 mph - N/A   Clear
4:53 PM 96.1 °F 44.1 °F 17% 29.86 in 10.0 mi NE 9.2 mph - N/A   Clear
5:53 PM 93.9 °F 44.1 °F 18% 29.86 in 10.0 mi NE 8.1 mph - N/A   Clear
6:53 PM 91.9 °F 43.0 °F 18% 29.86 in 10.0 mi NNE 5.8 mph - N/A   Clear
7:53 PM 90.0 °F 44.1 °F 20% 29.88 in 10.0 mi WNW 5.8 mph - N/A   Clear
8:53 PM 87.1 °F 45.0 °F 23% 29.89 in 10.0 mi West 9.2 mph - N/A   Clear
9:53 PM 87.1 °F 43.0 °F 21% 29.91 in 10.0 mi WNW 4.6 mph - N/A   Mostly Cloudy
10:53 PM 82.0 °F 52.0 °F 35% 29.95 in 10.0 mi ESE 21.9 mph 29.9 mph 0.00 in   Mostly Cloudy
11:53 PM 80.1 °F 50.0 °F 35% 29.94 in 10.0 mi SE 21.9 mph 29.9 mph N/A   Partly Cloudy